CZ-7 DEB

Last updated on Sat Feb 17 2024 00:02:03 GMT+0000 (Coordinated Universal Time)

1 58813U 24013C 24018.11402078 -.00002294 72670-5 00000+0 0 9997 2 58813 41.8298 285.9373 0234014 181.6233 328.2070 15.73710950 93

Satellite not in orbit